,,Stat6,,Stat2,,Stat8,,Stat9,,Stat10,,Wind1,,Wind1,
time,status,PA1M_AVG,status,PR1M_SUM,status,RH1M_AVG,status,SR1M_AVG,status,TA1M_AVG,status,W1dAve1m,status,W1sAve1m,
2004-01-04, 00:00:00,VALID,919.367,VALID,0,VALID,94.8579,VALID,-0.0169808,VALID,20.092,VALID,134,VALID,0.973958,
2004-01-04, 00:01:00,VALID,919.362,VALID,0,VALID,94.5756,VALID,0,VALID,20.1466,VALID,129,VALID,0.39098,
2004-01-04, 00:02:00,VALID,919.354,VALID,0,VALID,94.1369,VALID,0,VALID,20.1789,VALID,148,VALID,0.362216,
2004-01-04, 00:03:00,VALID,919.354,VALID,0,VALID,94.2602,VALID,-0.0339617,VALID,20.2085,VALID,153,VALID,0.696733,
2004-01-04, 00:04:00,VALID,919.364,VALID,0,VALID,94.3175,VALID,0,VALID,20.2472,VALID,133,VALID,0.808966,
2004-01-04, 00:05:00,VALID,919.385,VALID,0,VALID,93.833,VALID,0,VALID,20.2338,VALID,67,VALID,0.490663,
2004-01-04, 00:06:00,VALID,919.392,VALID,0,VALID,93.8012,VALID,0.0169808,VALID,20.2144,VALID,67,VALID,0.375545,
2004-01-04, 00:07:00,VALID,919.401,VALID,0,VALID,93.3103,VALID,-0.0169808,VALID,20.1598,VALID,41,VALID,0.767708,
2004-01-04, 00:08:00,VALID,919.391,VALID,0,VALID,93.7897,VALID,0,VALID,20.0917,VALID,37,VALID,0.679155,
2004-01-04, 00:09:00,VALID,919.369,VALID,0,VALID,94.554,VALID,0,VALID,20.0597,VALID,37,VALID,0.386719,
2004-01-04, 00:10:00,VALID,919.344,VALID,0,VALID,95.1135,VALID,0,VALID,20.0562,VALID,46,VALID,0.251302,
2004-01-04, 00:11:00,VALID,919.314,VALID,0,VALID,95.2445,VALID,0,VALID,20.0788,VALID,115,VALID,0.409028,
2004-01-04, 00:12:00,VALID,919.277,VALID,0,VALID,95.1147,VALID,-0.0509425,VALID,20.0694,VALID,111,VALID,0.538462,
2004-01-04, 00:13:00,VALID,919.251,VALID,0,VALID,95.2762,VALID,-0.0339617,VALID,20.082,VALID,116,VALID,0.713867,
2004-01-04, 00:14:00,VALID,919.239,VALID,0,VALID,95.1567,VALID,-0.0169808,VALID,20.0952,VALID,131,VALID,0.965116,
2004-01-04, 00:15:00,VALID,919.221,VALID,0,VALID,95.2152,VALID,0,VALID,20.0954,VALID,140,VALID,0.825036,
2004-01-04, 00:16:00,VALID,919.217,VALID,0,VALID,95.2228,VALID,0,VALID,20.1178,VALID,127,VALID,1.09909,
2004-01-04, 00:17:00,VALID,919.21,VALID,0,VALID,95.0677,VALID,-0.0169808,VALID,20.1342,VALID,133,VALID,1.23177,
2004-01-04, 00:18:00,VALID,919.214,VALID,0,VALID,95.0575,VALID,-0.0169808,VALID,20.1369,VALID,121,VALID,1.13815,
2004-01-04, 00:19:00,VALID,919.214,VALID,0,VALID,94.9634,VALID,0,VALID,20.16,VALID,121,VALID,1.00986,
2004-01-04, 00:20:00,VALID,919.216,VALID,0,VALID,95.0486,VALID,0,VALID,20.1436,VALID,118,VALID,1.17149,
2004-01-04, 00:21:00,VALID,919.219,VALID,0,VALID,95.13,VALID,-0.0509425,VALID,20.1372,VALID,121,VALID,1.12946,
2004-01-04, 00:22:00,VALID,919.225,VALID,0,VALID,95.1351,VALID,-0.0509425,VALID,20.131,VALID,108,VALID,1.34242,
2004-01-04, 00:23:00,VALID,919.215,VALID,0,VALID,95.2623,VALID,-0.0169808,VALID,20.1372,VALID,120,VALID,1.39236,
2004-01-04, 00:24:00,VALID,919.216,VALID,0,VALID,95.275,VALID,-0.0169808,VALID,20.1307,VALID,108,VALID,1.34242,
2004-01-04, 00:25:00,VALID,919.204,VALID,0,VALID,95.1567,VALID,0,VALID,20.1307,VALID,111,VALID,1.30633,
2004-01-04, 00:26:00,VALID,919.192,VALID,0,VALID,95.3055,VALID,-0.0169808,VALID,20.1339,VALID,113,VALID,1.3734,
2004-01-04, 00:27:00,VALID,919.18,VALID,0,VALID,95.3729,VALID,0,VALID,20.1426,VALID,129,VALID,1.16674,
2004-01-04, 00:28:00,VALID,919.17,VALID,0,VALID,95.2661,VALID,0,VALID,20.1657,VALID,115,VALID,1.14737,
2004-01-04, 00:29:00,VALID,919.165,VALID,0,VALID,95.1122,VALID,-0.0339617,VALID,20.1794,VALID,115,VALID,0.846875,
2004-01-04, 00:30:00,VALID,919.158,VALID,0,VALID,95.1173,VALID,0,VALID,20.1762,VALID,96,VALID,0.779474,
2004-01-04, 00:31:00,VALID,919.168,VALID,0,VALID,95.0639,VALID,0,VALID,20.1759,VALID,98,VALID,0.883413,
2004-01-04, 00:32:00,VALID,919.154,VALID,0,VALID,94.9838,VALID,-0.0339617,VALID,20.1759,VALID,96,VALID,0.627907,
2004-01-04, 00:33:00,VALID,919.149,VALID,0,VALID,95.055,VALID,0,VALID,20.1757,VALID,82,VALID,0.809642,
2004-01-04, 00:34:00,VALID,919.139,VALID,0,VALID,94.98,VALID,0.0169808,VALID,20.1921,VALID,100,VALID,0.693359,
2004-01-04, 00:35:00,VALID,919.142,VALID,0,VALID,94.7689,VALID,-0.0169808,VALID,20.1757,VALID,69,VALID,0.182566,
2004-01-04, 00:36:00,VALID,919.119,VALID,0,VALID,95.1186,VALID,0,VALID,20.1826,VALID,133,VALID,0.741279,
2004-01-04, 00:37:00,VALID,919.127,VALID,0,VALID,95.0524,VALID,0,VALID,20.205,VALID,129,VALID,0.127096,
2004-01-04, 00:38:00,VALID,919.12,VALID,0,VALID,94.9749,VALID,0.0169808,VALID,20.2177,VALID,119,VALID,0.356889,
2004-01-04, 00:39:00,VALID,919.117,VALID,0,VALID,94.7282,VALID,0,VALID,20.2375,VALID,90,VALID,0.252668,
2004-01-04, 00:40:00,VALID,919.127,VALID,0,VALID,94.5184,VALID,0,VALID,20.2306,VALID,42,VALID,0.70694,
2004-01-04, 00:41:00,VALID,919.128,VALID,0,VALID,94.6684,VALID,0,VALID,20.2174,VALID,61,VALID,0.682594,
2004-01-04, 00:42:00,VALID,919.119,VALID,0,VALID,94.6303,VALID,-0.0169808,VALID,20.2142,VALID,61,VALID,0.830357,
2004-01-04, 00:43:00,VALID,919.109,VALID,0,VALID,94.8655,VALID,0,VALID,20.2271,VALID,108,VALID,0.897372,
2004-01-04, 00:44:00,VALID,919.108,VALID,0,VALID,94.573,VALID,0.0169808,VALID,20.24,VALID,49,VALID,0.798177,
2004-01-04, 00:45:00,VALID,919.084,VALID,0,VALID,94.6341,VALID,0,VALID,20.2303,VALID,44,VALID,0.84375,
2004-01-04, 00:46:00,VALID,919.083,VALID,0,VALID,94.7333,VALID,0,VALID,20.2432,VALID,59,VALID,0.768169,
2004-01-04, 00:47:00,VALID,919.07,VALID,0,VALID,94.6849,VALID,0.0169808,VALID,20.233,VALID,56,VALID,0.528088,
2004-01-04, 00:48:00,VALID,919.047,VALID,0,VALID,94.98,VALID,-0.0169808,VALID,20.2696,VALID,74,VALID,0.80918,
2004-01-04, 00:49:00,VALID,919.023,VALID,0,VALID,94.8541,VALID,0.0169808,VALID,20.2984,VALID,56,VALID,0.838481,
2004-01-04, 00:50:00,VALID,918.989,VALID,0,VALID,94.6926,VALID,-0.0169808,VALID,20.3441,VALID,76,VALID,1.04342,
2004-01-04, 00:51:00,VALID,918.953,VALID,0,VALID,94.6252,VALID,0,VALID,20.3759,VALID,121,VALID,1.39766,
2004-01-04, 00:52:00,VALID,918.935,VALID,0,VALID,94.3861,VALID,0,VALID,20.4303,VALID,121,VALID,1.22812,
2004-01-04, 00:53:00,VALID,918.928,VALID,0,VALID,94.0174,VALID,0.0339617,VALID,20.4984,VALID,76,VALID,0.785528,
2004-01-04, 00:54:00,VALID,918.908,VALID,0,VALID,93.9945,VALID,0.0169808,VALID,20.511,VALID,94,VALID,0.706032,
2004-01-04, 00:55:00,VALID,918.906,VALID,0,VALID,93.9678,VALID,0,VALID,20.5371,VALID,105,VALID,0.677344,
2004-01-04, 00:56:00,VALID,918.908,VALID,0,VALID,93.9182,VALID,0.0169808,VALID,20.5632,VALID,113,VALID,0.748438,
2004-01-04, 00:57:00,VALID,918.901,VALID,0,VALID,93.8393,VALID,0,VALID,20.5953,VALID,101,VALID,0.642475,
2004-01-04, 00:58:00,VALID,918.912,VALID,0,VALID,93.66,VALID,0,VALID,20.6017,VALID,85,VALID,0.314546,
2004-01-04, 00:59:00,VALID,918.895,VALID,0,VALID,93.6117,VALID,0,VALID,20.6214,VALID,101,VALID,0.313743,
2004-01-04, 01:00:00,VALID,918.886,VALID,0,VALID,93.5799,VALID,-0.0169808,VALID,20.6278,VALID,134,VALID,0.653274,
2004-01-04, 01:01:00,VALID,918.863,VALID,0,VALID,93.4655,VALID,0,VALID,20.6566,VALID,133,VALID,0.535547,
2004-01-04, 01:02:00,VALID,918.863,VALID,0,VALID,93.3612,VALID,0,VALID,20.6728,VALID,145,VALID,0.482599,
2004-01-04, 01:03:00,VALID,918.845,VALID,0,VALID,93.2518,VALID,-0.0169808,VALID,20.6954,VALID,138,VALID,0.634084,
2004-01-04, 01:04:00,VALID,918.845,VALID,0,VALID,93.1959,VALID,0.0169808,VALID,20.7245,VALID,122,VALID,0.461293,
2004-01-04, 01:05:00,VALID,918.833,VALID,0,VALID,93.1158,VALID,0,VALID,20.7215,VALID,127,VALID,0.947443,
2004-01-04, 01:06:00,VALID,918.823,VALID,0,VALID,93.1285,VALID,0.0169808,VALID,20.7086,VALID,145,VALID,1.07106,
2004-01-04, 01:07:00,VALID,918.806,VALID,0,VALID,93.0649,VALID,0,VALID,20.676,VALID,135,VALID,1.29314,
2004-01-04, 01:08:00,VALID,918.808,VALID,0,VALID,92.8996,VALID,0,VALID,20.676,VALID,125,VALID,1.23917,
2004-01-04, 01:09:00,VALID,918.809,VALID,0,VALID,92.7839,VALID,0.0169808,VALID,20.6787,VALID,114,VALID,1.21493,
2004-01-04, 01:10:00,VALID,918.8,VALID,0,VALID,92.6822,VALID,0,VALID,20.6951,VALID,118,VALID,1.06098,
2004-01-04, 01:11:00,VALID,918.817,VALID,0,VALID,92.6656,VALID,0,VALID,20.7046,VALID,104,VALID,0.814808,
2004-01-04, 01:12:00,VALID,918.812,VALID,0,VALID,92.6669,VALID,-0.0849042,VALID,20.7158,VALID,89,VALID,0.945503,
2004-01-04, 01:13:00,VALID,918.804,VALID,0,VALID,92.5792,VALID,-0.118866,VALID,20.7327,VALID,98,VALID,0.858041,
2004-01-04, 01:14:00,VALID,918.785,VALID,0,VALID,92.5804,VALID,-0.101885,VALID,20.7548,VALID,123,VALID,0.893164,
2004-01-04, 01:15:00,VALID,918.751,VALID,0,VALID,92.494,VALID,-0.118866,VALID,20.7742,VALID,125,VALID,0.775746,
2004-01-04, 01:16:00,VALID,918.74,VALID,0,VALID,92.4253,VALID,-0.101885,VALID,20.7871,VALID,124,VALID,0.729833,
2004-01-04, 01:17:00,VALID,918.713,VALID,0,VALID,92.3732,VALID,-0.118866,VALID,20.8095,VALID,117,VALID,0.508203,
2004-01-04, 01:18:00,VALID,918.702,VALID,0,VALID,92.3185,VALID,-0.101885,VALID,20.8192,VALID,157,VALID,0.643555,
2004-01-04, 01:19:00,VALID,918.684,VALID,0,VALID,92.2664,VALID,-0.101885,VALID,20.8619,VALID,130,VALID,0.261347,
2004-01-04, 01:20:00,VALID,918.668,VALID,0,VALID,92.1672,VALID,-0.101885,VALID,20.8709,VALID,130,VALID,0.0284722,
2004-01-04, 01:21:00,VALID,918.668,VALID,0,VALID,92.0858,VALID,-0.101885,VALID,20.9004,VALID,130,VALID,0.0107887,
2004-01-04, 01:22:00,VALID,918.653,VALID,0,VALID,92.1087,VALID,-0.118866,VALID,20.9096,VALID,130,VALID,0.169567,
2004-01-04, 01:23:00,VALID,918.635,VALID,0,VALID,92.1252,VALID,-0.101885,VALID,20.9169,VALID,214,VALID,0.37128,
2004-01-04, 01:24:00,VALID,918.624,VALID,0,VALID,92.3045,VALID,-0.101885,VALID,20.8902,VALID,223,VALID,0.283253,
2004-01-04, 01:25:00,VALID,918.61,VALID,0,VALID,92.583,VALID,-0.101885,VALID,20.8488,VALID,228,VALID,0.437318,
2004-01-04, 01:26:00,VALID,918.605,VALID,0,VALID,92.8259,VALID,-0.101885,VALID,20.7508,VALID,279,VALID,0.657493,
2004-01-04, 01:27:00,VALID,918.574,VALID,0,VALID,93.2506,VALID,-0.0169808,VALID,20.6916,VALID,273,VALID,0.542492,
2004-01-04, 01:28:00,VALID,918.551,VALID,0,VALID,93.6626,VALID,0,VALID,20.6101,VALID,264,VALID,0.572218,
2004-01-04, 01:29:00,VALID,918.519,VALID,0,VALID,93.8978,VALID,0,VALID,20.5522,VALID,264,VALID,0.516927,
2004-01-04, 01:30:00,VALID,918.502,VALID,0,VALID,94.0873,VALID,-0.0339617,VALID,20.5433,VALID,263,VALID,0.379616,
2004-01-04, 01:31:00,VALID,918.482,VALID,0,VALID,94.2679,VALID,-0.0339617,VALID,20.5103,VALID,261,VALID,0.300877,
2004-01-04, 01:32:00,VALID,918.477,VALID,0,VALID,94.5133,VALID,0,VALID,20.5075,VALID,219,VALID,0.407774,
2004-01-04, 01:33:00,VALID,918.476,VALID,0,VALID,94.512,VALID,0,VALID,20.471,VALID,212,VALID,0.40625,
2004-01-04, 01:34:00,VALID,918.471,VALID,0,VALID,94.4942,VALID,0,VALID,20.4551,VALID,213,VALID,0.243331,
2004-01-04, 01:35:00,VALID,918.468,VALID,0,VALID,94.4268,VALID,0,VALID,20.4653,VALID,213,VALID,0.0502232,
2004-01-04, 01:36:00,VALID,918.48,VALID,0,VALID,94.3912,VALID,0,VALID,20.4588,VALID,213,VALID,0,
2004-01-04, 01:37:00,VALID,918.488,VALID,0,VALID,94.3874,VALID,0,VALID,20.465,VALID,152,VALID,0.154251,
2004-01-04, 01:38:00,VALID,918.476,VALID,0,VALID,94.4472,VALID,0,VALID,20.4588,VALID,145,VALID,0,
2004-01-04, 01:39:00,VALID,918.465,VALID,0,VALID,94.5184,VALID,0,VALID,20.4556,VALID,145,VALID,0.158249,
2004-01-04, 01:40:00,VALID,918.467,VALID,0,VALID,94.5972,VALID,0.0169808,VALID,20.4551,VALID,145,VALID,0.0741235,
2004-01-04, 01:41:00,VALID,918.45,VALID,0,VALID,94.573,VALID,-0.0169808,VALID,20.4616,VALID,145,VALID,0,
2004-01-04, 01:42:00,VALID,918.44,VALID,0,VALID,94.5845,VALID,0,VALID,20.4812,VALID,217,VALID,0.248857,
2004-01-04, 01:43:00,VALID,918.429,VALID,0,VALID,94.5018,VALID,0,VALID,20.5135,VALID,250,VALID,0.321911,
2004-01-04, 01:44:00,VALID,918.422,VALID,0,VALID,94.306,VALID,-0.0339617,VALID,20.5264,VALID,238,VALID,0.191406,
2004-01-04, 01:45:00,VALID,918.413,VALID,0,VALID,94.2361,VALID,-0.0169808,VALID,20.5463,VALID,238,VALID,0.0070503,
2004-01-04, 01:46:00,VALID,918.385,VALID,0,VALID,94.2183,VALID,-0.0509425,VALID,20.5622,VALID,238,VALID,0.037064,
2004-01-04, 01:47:00,VALID,918.365,VALID,0,VALID,94.1547,VALID,-0.0169808,VALID,20.5652,VALID,238,VALID,0.0368304,
2004-01-04, 01:48:00,VALID,918.328,VALID,0,VALID,94.1839,VALID,-0.0169808,VALID,20.5816,VALID,238,VALID,0,
2004-01-04, 01:49:00,VALID,918.32,VALID,0,VALID,94.3009,VALID,0,VALID,20.5716,VALID,238,VALID,0.272049,
2004-01-04, 01:50:00,VALID,918.308,VALID,0,VALID,94.2615,VALID,0,VALID,20.5552,VALID,238,VALID,0.257422,
2004-01-04, 01:51:00,VALID,918.306,VALID,0,VALID,94.3403,VALID,0,VALID,20.5068,VALID,238,VALID,0.245508,
2004-01-04, 01:52:00,VALID,918.294,VALID,0,VALID,94.4777,VALID,-0.0169808,VALID,20.4876,VALID,215,VALID,0.396484,
2004-01-04, 01:53:00,VALID,918.281,VALID,0,VALID,94.5145,VALID,0,VALID,20.4745,VALID,140,VALID,0.356027,
2004-01-04, 01:54:00,VALID,918.274,VALID,0,VALID,94.5705,VALID,0.0169808,VALID,20.4715,VALID,134,VALID,0.781064,
2004-01-04, 01:55:00,VALID,918.266,VALID,0,VALID,94.4802,VALID,0,VALID,20.4946,VALID,87,VALID,0.359375,
2004-01-04, 01:56:00,VALID,918.242,VALID,0,VALID,94.4179,VALID,0.0169808,VALID,20.4973,VALID,70,VALID,0.138529,
2004-01-04, 01:57:00,VALID,918.228,VALID,0,VALID,94.4281,VALID,0.101885,VALID,20.5097,VALID,84,VALID,0.139353,
2004-01-04, 01:58:00,VALID,918.195,VALID,0,VALID,94.4344,VALID,0.101885,VALID,20.5057,VALID,109,VALID,0.761905,
2004-01-04, 01:59:00,VALID,918.161,VALID,0,VALID,94.3594,VALID,0.101885,VALID,20.5283,VALID,141,VALID,0.959077,
2004-01-04, 02:00:00,VALID,918.139,VALID,0,VALID,94.2272,VALID,0.101885,VALID,20.5445,VALID,97,VALID,0.574591,
2004-01-04, 02:01:00,VALID,918.129,VALID,0,VALID,94.1865,VALID,0.101885,VALID,20.5413,VALID,107,VALID,0.429501,
2004-01-04, 02:02:00,VALID,918.114,VALID,0,VALID,94.1827,VALID,0.101885,VALID,20.5378,VALID,177,VALID,0.875727,
2004-01-04, 02:03:00,VALID,918.083,VALID,0,VALID,94.039,VALID,0.0849042,VALID,20.5407,VALID,149,VALID,1.55748,
2004-01-04, 02:04:00,VALID,918.071,VALID,0,VALID,93.7401,VALID,0.0849042,VALID,20.5924,VALID,135,VALID,1.23722,
2004-01-04, 02:05:00,VALID,918.067,VALID,0,VALID,93.5125,VALID,0.135847,VALID,20.625,VALID,138,VALID,0.979106,
2004-01-04, 02:06:01,VALID,918.05,VALID,0,VALID,93.4617,VALID,0.101885,VALID,20.6416,VALID,124,VALID,1.16578,
2004-01-04, 02:07:00,VALID,918.035,VALID,0,VALID,93.4566,VALID,0.101885,VALID,20.6088,VALID,111,VALID,1.07849,
2004-01-04, 02:08:01,VALID,918.028,VALID,0,VALID,93.7923,VALID,0.101885,VALID,20.5504,VALID,102,VALID,1.1766,
2004-01-04, 02:09:00,VALID,917.987,VALID,0,VALID,94.0822,VALID,0.0849042,VALID,20.5022,VALID,116,VALID,1.25801,
2004-01-04, 02:10:01,VALID,917.961,VALID,0,VALID,94.3403,VALID,0.0849042,VALID,20.4702,VALID,129,VALID,1.03869,
2004-01-04, 02:11:00,VALID,917.926,VALID,0,VALID,94.3175,VALID,0.101885,VALID,20.4213,VALID,122,VALID,0.988086,
2004-01-04, 02:12:00,VALID,917.889,VALID,0,VALID,94.5044,VALID,0.0169808,VALID,20.4002,VALID,125,VALID,1.5814,
2004-01-04, 02:13:00,VALID,917.883,VALID,0,VALID,94.4955,VALID,0,VALID,20.3784,VALID,124,VALID,1.60337,
2004-01-04, 02:14:01,VALID,917.878,VALID,0,VALID,94.3264,VALID,0,VALID,20.355,VALID,106,VALID,1.3608,
2004-01-04, 02:15:00,VALID,917.875,VALID,0,VALID,94.4866,VALID,0,VALID,20.3359,VALID,116,VALID,1.5189,
2004-01-04, 02:16:00,VALID,917.876,VALID,0,VALID,94.4052,VALID,0,VALID,20.3528,VALID,87,VALID,1.04573,
2004-01-04, 02:17:01,VALID,917.883,VALID,0,VALID,94.4294,VALID,0,VALID,20.3297,VALID,92,VALID,1.05562,
2004-01-04, 02:18:01,VALID,917.861,VALID,0,VALID,94.526,VALID,0,VALID,20.3162,VALID,110,VALID,1.05664,
2004-01-04, 02:19:00,VALID,917.843,VALID,0,VALID,94.5616,VALID,0,VALID,20.3068,VALID,112,VALID,0.997713,
2004-01-04, 02:20:00,VALID,917.827,VALID,0,VALID,94.5997,VALID,0,VALID,20.3038,VALID,93,VALID,0.675595,
2004-01-04, 02:21:01,VALID,917.804,VALID,0,VALID,94.6087,VALID,0,VALID,20.2976,VALID,113,VALID,0.737645,
2004-01-04, 02:22:00,VALID,917.771,VALID,0,VALID,94.6366,VALID,0,VALID,20.2976,VALID,112,VALID,0.280895,
2004-01-04, 02:23:01,VALID,917.779,VALID,0,VALID,94.6544,VALID,0,VALID,20.2877,VALID,118,VALID,0.50686,
2004-01-04, 02:24:00,VALID,917.77,VALID,0,VALID,94.6849,VALID,-0.0509425,VALID,20.2847,VALID,132,VALID,0.541606,
2004-01-04, 02:25:00,VALID,917.776,VALID,0,VALID,94.6989,VALID,0.0169808,VALID,20.2879,VALID,131,VALID,0.684304,
2004-01-04, 02:26:00,VALID,917.773,VALID,0,VALID,94.5934,VALID,-0.0169808,VALID,20.2912,VALID,164,VALID,0.343572,
2004-01-04, 02:27:01,VALID,917.785,VALID,0,VALID,94.5997,VALID,-0.0169808,VALID,20.2879,VALID,158,VALID,0.446403,
2004-01-04, 02:28:00,VALID,917.799,VALID,0,VALID,94.4497,VALID,-0.0509425,VALID,20.2946,VALID,121,VALID,0.309956,
2004-01-04, 02:29:00,VALID,917.799,VALID,0,VALID,94.4522,VALID,-0.0509425,VALID,20.2947,VALID,134,VALID,0.253018,
2004-01-04, 02:30:00,VALID,917.803,VALID,0,VALID,94.4014,VALID,-0.0169808,VALID,20.2914,VALID,139,VALID,0.433408,
2004-01-04, 02:31:00,VALID,917.812,VALID,0,VALID,94.3124,VALID,-0.0169808,VALID,20.2529,VALID,105,VALID,0.91495,
2004-01-04, 02:32:01,VALID,917.804,VALID,0,VALID,94.5616,VALID,-0.0339617,VALID,20.2338,VALID,86,VALID,0.595703,
2004-01-04, 02:33:00,VALID,917.821,VALID,0,VALID,94.6214,VALID,-0.0169808,VALID,20.2144,VALID,99,VALID,0.506098,
2004-01-04, 02:34:01,VALID,917.814,VALID,0,VALID,94.7892,VALID,-0.0169808,VALID,20.195,VALID,109,VALID,0.409766,
2004-01-04, 02:35:00,VALID,917.822,VALID,0,VALID,94.7206,VALID,-0.0169808,VALID,20.1821,VALID,71,VALID,0.830273,
2004-01-04, 02:36:00,VALID,917.82,VALID,0,VALID,94.8057,VALID,-0.0509425,VALID,20.1523,VALID,75,VALID,0.853609,
2004-01-04, 02:37:00,VALID,917.817,VALID,0,VALID,94.8337,VALID,-0.0339617,VALID,20.1362,VALID,69,VALID,0.995584,
2004-01-04, 02:38:00,VALID,917.804,VALID,0,VALID,94.9736,VALID,-0.0339617,VALID,20.1305,VALID,100,VALID,0.913876,
2004-01-04, 02:39:01,VALID,917.796,VALID,0,VALID,95.2279,VALID,-0.0509425,VALID,20.1302,VALID,135,VALID,1.1305,
2004-01-04, 02:40:00,VALID,917.79,VALID,0,VALID,95.1351,VALID,-0.0169808,VALID,20.1208,VALID,136,VALID,1.0843,
2004-01-04, 02:41:01,VALID,917.76,VALID,0,VALID,95.3233,VALID,-0.0169808,VALID,20.1143,VALID,142,VALID,1.14272,
2004-01-04, 02:42:00,VALID,917.748,VALID,0,VALID,95.3233,VALID,-0.0339617,VALID,20.1208,VALID,126,VALID,0.789063,
2004-01-04, 02:43:00,VALID,917.743,VALID,0,VALID,95.1783,VALID,0.0169808,VALID,20.1143,VALID,115,VALID,0.739826,
2004-01-04, 02:44:00,VALID,917.738,VALID,0,VALID,94.9876,VALID,0,VALID,20.088,VALID,101,VALID,0.947173,
2004-01-04, 02:45:01,VALID,917.738,VALID,0,VALID,94.9939,VALID,-0.0339617,VALID,20.0495,VALID,105,VALID,0.627604,
2004-01-04, 02:46:01,VALID,917.739,VALID,0,VALID,95.2584,VALID,-0.0169808,VALID,20.0368,VALID,105,VALID,0.644832,
2004-01-04, 02:47:01,VALID,917.741,VALID,0,VALID,95.294,VALID,0,VALID,20.014,VALID,106,VALID,0.470465,
2004-01-04, 02:48:00,VALID,917.746,VALID,0,VALID,95.2788,VALID,-0.0169808,VALID,20.0045,VALID,103,VALID,0.399164,
2004-01-04, 02:49:01,VALID,917.749,VALID,0,VALID,95.3309,VALID,-0.0509425,VALID,19.9916,VALID,126,VALID,0.450107,
2004-01-04, 02:50:01,VALID,917.759,VALID,0,VALID,95.4377,VALID,0,VALID,20.0048,VALID,115,VALID,0.39881,
2004-01-04, 02:51:00,VALID,917.778,VALID,0,VALID,95.4339,VALID,0,VALID,20.0077,VALID,51,VALID,0.264881,
2004-01-04, 02:52:00,VALID,917.784,VALID,0,VALID,95.2788,VALID,0,VALID,20.0075,VALID,81,VALID,0.45476,
2004-01-04, 02:53:00,VALID,917.783,VALID,0,VALID,95.2801,VALID,-0.0169808,VALID,20.0043,VALID,99,VALID,0.595385,
2004-01-04, 02:54:01,VALID,917.773,VALID,0,VALID,95.1643,VALID,-0.0169808,VALID,20.001,VALID,114,VALID,0.507227,
2004-01-04, 02:55:00,VALID,917.767,VALID,0,VALID,95.2699,VALID,-0.0169808,VALID,19.9953,VALID,134,VALID,0.839026,
2004-01-04, 02:56:00,VALID,917.747,VALID,0,VALID,95.2114,VALID,0,VALID,19.9722,VALID,105,VALID,0.815044,
2004-01-04, 02:57:01,VALID,917.726,VALID,0,VALID,95.3907,VALID,-0.0169808,VALID,19.9593,VALID,128,VALID,1.14546,
2004-01-04, 02:58:00,VALID,917.705,VALID,0,VALID,95.3881,VALID,-0.0339617,VALID,19.9561,VALID,127,VALID,1.15365,
2004-01-04, 02:59:00,VALID,917.707,VALID,0,VALID,95.5013,VALID,-0.0339617,VALID,19.9501,VALID,140,VALID,0.946801,
2004-01-04, 03:00:01,VALID,917.695,VALID,0,VALID,95.6208,VALID,-0.0339617,VALID,19.9501,VALID,142,VALID,1.43586,
2004-01-04, 03:01:01,VALID,917.708,VALID,0,VALID,95.4848,VALID,-0.0679233,VALID,19.9501,VALID,124,VALID,0.846112,
2004-01-04, 03:02:00,VALID,917.711,VALID,0,VALID,95.289,VALID,-0.0339617,VALID,19.9273,VALID,117,VALID,0.965701,
2004-01-04, 03:03:00,VALID,917.703,VALID,0,VALID,95.4187,VALID,-0.0339617,VALID,19.9014,VALID,127,VALID,1.10629,
2004-01-04, 03:04:01,VALID,917.712,VALID,0,VALID,95.57,VALID,-0.0509425,VALID,19.895,VALID,126,VALID,1.12607,
2004-01-04, 03:05:00,VALID,917.717,VALID,0,VALID,95.6386,VALID,-0.0339617,VALID,19.8823,VALID,131,VALID,0.823171,
2004-01-04, 03:06:00,VALID,917.724,VALID,0,VALID,95.6565,VALID,-0.0339617,VALID,19.8885,VALID,124,VALID,0.971912,
2004-01-04, 03:07:00,VALID,917.723,VALID,0,VALID,95.748,VALID,-0.0339617,VALID,19.9019,VALID,141,VALID,1.4652,
2004-01-04, 03:08:00,VALID,917.713,VALID,0,VALID,95.631,VALID,-0.0169808,VALID,19.9079,VALID,123,VALID,1.11477,
2004-01-04, 03:09:00,VALID,917.708,VALID,0,VALID,95.4225,VALID,-0.0509425,VALID,19.9176,VALID,120,VALID,1.22383,
2004-01-04, 03:10:00,VALID,917.682,VALID,0,VALID,95.3449,VALID,-0.0169808,VALID,19.9245,VALID,124,VALID,1.41559,
2004-01-04, 03:11:01,VALID,917.65,VALID,0,VALID,95.3131,VALID,-0.0339617,VALID,19.9181,VALID,128,VALID,1.73165,
2004-01-04, 03:12:00,VALID,917.621,VALID,0,VALID,95.2305,VALID,-0.0509425,VALID,19.9275,VALID,129,VALID,1.67515,
2004-01-04, 03:13:00,VALID,917.613,VALID,0,VALID,95.1402,VALID,-0.0169808,VALID,19.9471,VALID,135,VALID,1.76635,
2004-01-04, 03:14:00,VALID,917.6,VALID,0,VALID,95.0423,VALID,0,VALID,19.9526,VALID,136,VALID,1.77877,
2004-01-04, 03:15:00,VALID,917.617,VALID,0,VALID,94.7727,VALID,0,VALID,19.9697,VALID,123,VALID,1.46609,
2004-01-04, 03:16:01,VALID,917.637,VALID,0,VALID,94.6481,VALID,-0.0169808,VALID,19.9658,VALID,124,VALID,1.30124,
2004-01-04, 03:17:01,VALID,917.658,VALID,0,VALID,94.6201,VALID,-0.0169808,VALID,19.9561,VALID,112,VALID,1.86447,
2004-01-04, 03:18:01,VALID,917.675,VALID,0,VALID,94.6646,VALID,-0.0339617,VALID,19.9598,VALID,122,VALID,1.36681,
2004-01-04, 03:19:00,VALID,917.686,VALID,0,VALID,94.7498,VALID,-0.0339617,VALID,19.9633,VALID,127,VALID,1.62731,
2004-01-04, 03:20:01,VALID,917.682,VALID,0,VALID,94.5362,VALID,-0.0339617,VALID,19.9794,VALID,122,VALID,0.922991,
2004-01-04, 03:21:01,VALID,917.692,VALID,0,VALID,94.4573,VALID,0,VALID,19.9461,VALID,101,VALID,0.844512,
2004-01-04, 03:22:00,VALID,917.693,VALID,0,VALID,94.4726,VALID,-0.0339617,VALID,19.9109,VALID,89,VALID,0.89098,
2004-01-04, 03:23:01,VALID,917.686,VALID,0,VALID,94.7803,VALID,-0.0339617,VALID,19.8724,VALID,109,VALID,1.34699,
2004-01-04, 03:24:01,VALID,917.687,VALID,0,VALID,94.9316,VALID,-0.0509425,VALID,19.8667,VALID,86,VALID,0.715039,
2004-01-04, 03:25:01,VALID,917.671,VALID,0,VALID,94.985,VALID,-0.0339617,VALID,19.8436,VALID,115,VALID,0.93093,
2004-01-04, 03:26:00,VALID,917.68,VALID,0,VALID,95.116,VALID,0,VALID,19.8336,VALID,109,VALID,0.955433,
2004-01-04, 03:27:00,VALID,917.662,VALID,0,VALID,95.1694,VALID,-0.0169808,VALID,19.8339,VALID,99,VALID,0.959121,
2004-01-04, 03:28:00,VALID,917.671,VALID,0,VALID,95.088,VALID,-0.0339617,VALID,19.8572,VALID,110,VALID,0.629102,
2004-01-04, 03:29:00,VALID,917.681,VALID,0,VALID,95.0741,VALID,0,VALID,19.8301,VALID,121,VALID,0.721799,
2004-01-04, 03:30:00,VALID,917.677,VALID,0,VALID,95.0474,VALID,0,VALID,19.8331,VALID,134,VALID,0.409339,
2004-01-04, 03:31:00,VALID,917.674,VALID,0,VALID,94.9596,VALID,0,VALID,19.8272,VALID,92,VALID,0.434775,
2004-01-04, 03:32:00,VALID,917.674,VALID,0,VALID,94.8897,VALID,-0.0169808,VALID,19.8011,VALID,96,VALID,0.405078,
2004-01-04, 03:33:00,VALID,917.667,VALID,0,VALID,94.8337,VALID,0.0169808,VALID,19.772,VALID,56,VALID,0.294588,
2004-01-04, 03:34:00,VALID,917.666,VALID,0,VALID,95.055,VALID,0,VALID,19.779,VALID,122,VALID,0.549479,
2004-01-04, 03:35:00,VALID,917.67,VALID,0,VALID,95.0041,VALID,0.0169808,VALID,19.7887,VALID,53,VALID,0.3752,
2004-01-04, 03:36:00,VALID,917.664,VALID,0,VALID,94.9494,VALID,-0.0169808,VALID,19.8108,VALID,357,VALID,0.207698,
2004-01-04, 03:37:00,VALID,917.679,VALID,0,VALID,94.8299,VALID,0,VALID,19.8205,VALID,357,VALID,0.339935,